FW7233 Weather Reports


Display with metric or nautical units.
time (UTC)temp
F
wind
direction
speed
MPH
gust
MPH
rain 1hr
in
rain 24hr
in
rain mn
in
humidity
%
barometer
mb
20260506092608 71 105 1.0 9.0 0.00 0.00 0.00 63 1005.8
20260506091608 71 163 4.0 7.0 0.00 0.00 0.00 62 1005.4
20260506090607 72 201 2.0 14.0 0.00 0.00 0.00 62 1005.3
20260506085608 70 283 3.0 11.0 0.00 0.00 0.00 61 1005.5
20260506083608 70 38 2.0 8.0 0.00 0.00 0.00 64 1005.4
20260506082607 68 101 3.0 9.0 0.00 0.00 0.00 65 1005.6
20260506081608 68 141 2.0 15.0 0.00 0.00 0.00 68 1005.5
20260506080607 68 176 2.0 8.0 0.00 0.00 0.00 66 1005.4
20260506071607 66 221 2.0 9.0 0.00 0.00 0.00 69 1005.2
20260506070608 65 167 3.0 9.0 0.00 0.00 0.00 70 1005.0
20260506044608 53 159 5.0 6.0 0.00 0.00 0.00 99 1005.3
20260506043608 52 133 0.0 2.0 0.00 0.00 0.00 99 1005.5
20260506042608 51 141 0.0 0.0 0.00 0.00 0.00 99 1005.2
20260506041608 51 138 0.0 1.0 0.00 0.00 0.00 99 1005.3
20260506040608 50 136 0.0 1.0 0.00 0.00 0.00 99 1005.2
20260506034608 48 140 0.0 0.0 0.00 0.00 0.00 99 1005.5
20260506033607 48 131 0.0 0.0 0.00 0.00 0.00 99 1005.7
20260506032608 47 137 0.0 0.0 0.00 0.00 0.00 99 1005.8
20260506031608 48 141 0.0 0.0 0.00 0.00 0.00 99 1005.6
20260506030607 47 140 0.0 0.0 0.00 0.00 0.00 99 1005.8
20260506025608 48 140 0.0 0.0 0.00 0.00 0.00 99 1005.8
20260506024607 47 137 0.0 0.0 0.00 0.00 0.00 99 1005.8
20260506023608 48 133 0.0 0.0 0.00 0.00 0.00 99 1005.7
20260506022607 48 137 0.0 0.0 0.00 0.00 0.00 99 1005.8
20260506021607 48 140 0.0 0.0 0.00 0.00 0.00 99 1006.2
20260506020609 49 135 0.0 0.0 0.00 0.00 0.00 99 1006.2
20260506014608 49 141 0.0 1.0 0.00 0.00 0.00 99 1006.2
20260506013615 49 146 0.0 0.0 0.00 0.00 0.00 99 1006.2
20260506012608 49 141 0.0 0.0 0.00 0.00 0.00 99 1006.0
20260506011607 49 136 0.0 1.0 0.00 0.00 0.00 99 1006.3
20260506010607 49 157 1.0 1.0 0.00 0.00 0.00 99 1006.1
20260506005607 49 113 0.0 1.0 0.00 0.00 0.00 99 1006.0
20260506004608 49 139 0.0 0.0 0.00 0.00 0.00 99 1006.1
20260506002607 50 143 0.0 0.0 0.00 0.00 0.00 98 1006.4
20260506001608 50 137 0.0 0.0 0.00 0.00 0.00 98 1006.2
20260506000608 51 146 0.0 0.0 0.00 0.00 0.00 98 1006.5
20260505234607 51 149 0.0 0.0 0.00 0.00 0.00 97 1006.5
20260505232609 51 138 0.0 1.0 0.00 0.00 0.00 96 1006.5
20260505231608 52 138 0.0 0.0 0.00 0.00 0.00 96 1006.7
20260505230607 53 138 0.0 0.0 0.00 0.00 0.00 96 1006.7
20260505225608 53 147 0.0 0.0 0.00 0.00 0.00 95 1006.8
20260505224608 54 150 0.0 1.0 0.00 0.00 0.00 95 1006.8
20260505223608 54 138 0.0 0.0 0.00 0.00 0.00 95 1006.6
20260505222607 54 151 0.0 0.0 0.00 0.00 0.00 95 1006.8
20260505221608 55 132 0.0 1.0 0.00 0.00 0.00 94 1006.7
20260505220608 55 137 0.0 0.0 0.00 0.00 0.00 94 1006.8
20260505215608 56 137 0.0 1.0 0.00 0.00 0.00 93 1006.9
20260505214608 56 65 0.0 2.0 0.00 0.00 0.00 93 1006.9
20260505213608 56 140 0.0 1.0 0.00 0.00 0.00 93 1007.1
20260505212608 57 138 0.0 1.0 0.00 0.00 0.00 92 1006.9
20260505210609 58 127 0.0 0.0 0.00 0.00 0.00 90 1007.0
20260505205608 58 149 0.0 1.0 0.00 0.00 0.00 90 1007.0
20260505204608 59 142 0.0 2.0 0.00 0.00 0.00 89 1006.9
20260505203608 59 141 0.0 1.0 0.00 0.00 0.00 88 1007.1
20260505202608 60 123 1.0 2.0 0.00 0.00 0.00 87 1006.9
20260505200608 61 130 0.0 1.0 0.00 0.00 0.00 85 1007.1
20260505195608 62 97 0.0 2.0 0.00 0.00 0.00 84 1007.0
20260505194608 62 105 0.0 3.0 0.00 0.00 0.00 82 1006.9
20260505193608 62 139 0.0 2.0 0.00 0.00 0.00 83 1006.8
20260505192608 62 134 0.0 1.0 0.00 0.00 0.00 83 1006.9
20260505190609 64 115 0.0 1.0 0.00 0.00 0.00 80 1006.8
20260505185607 65 142 1.0 3.0 0.00 0.00 0.00 78 1006.7
20260505184609 65 107 0.0 2.0 0.00 0.00 0.00 77 1006.8
20260505183607 66 67 1.0 2.0 0.00 0.00 0.00 76 1006.2
20260505182608 66 141 0.0 2.0 0.00 0.00 0.00 74 1006.4
20260505181607 67 125 0.0 2.0 0.00 0.00 0.00 72 1006.1
20260505180607 69 41 0.0 3.0 0.00 0.00 0.00 67 1006.2
20260505175607 67 150 1.0 2.0 0.00 0.00 0.00 61 1006.0
20260505174608 67 152 0.0 0.0 0.00 0.00 0.00 51 1005.7
20260505173608 69 147 0.0 0.0 0.00 0.00 0.00 49 1006.0
20260505171607 73 142 0.0 1.0 0.00 0.00 0.00 41 1005.9
20260505170607 74 177 1.0 3.0 0.00 0.00 0.00 40 1005.8
20260505165608 75 180 0.0 2.0 0.00 0.00 0.00 39 1005.8
20260505164608 76 139 0.0 2.0 0.00 0.00 0.00 36 1005.9
20260505163608 78 149 0.0 3.0 0.00 0.00 0.00 33 1005.9
20260505162608 79 150 1.0 7.0 0.00 0.00 0.00 32 1006.1
20260505161607 79 97 3.0 6.0 0.00 0.00 0.00 30 1005.8
20260505160608 80 140 2.0 10.0 0.00 0.00 0.00 32 1005.9
20260505152608 80 243 4.0 9.0 0.00 0.00 0.00 28 1006.0
20260505151608 82 146 3.0 11.0 0.00 0.00 0.00 26 1005.9
20260505140608 82 262 2.0 7.0 0.00 0.00 0.00 28 1006.5
20260505123609 79 165 1.0 6.0 0.00 0.00 0.00 34 1007.3
20260505122608 79 140 1.0 9.0 0.00 0.00 0.00 30 1007.5
20260505121608 81 138 3.0 9.0 0.00 0.00 0.00 30 1007.5
20260505115608 80 112 3.0 9.0 0.00 0.00 0.00 42 1007.6
20260505114608 80 195 4.0 9.0 0.00 0.00 0.00 38 1007.8
20260505113608 81 144 3.0 6.0 0.00 0.00 0.00 43 1007.8
20260505112607 77 131 4.0 6.0 0.00 0.00 0.00 37 1007.8
20260505111608 78 153 1.0 6.0 0.00 0.00 0.00 43 1008.0
20260505110620 79 129 1.0 4.0 0.00 0.00 0.00 42 1008.3
20260505101608 76 320 1.0 4.0 0.00 0.00 0.00 41 1008.8
20260505100608 76 151 3.0 7.0 0.00 0.00 0.00 45 1008.9
20260505095608 78 165 3.0 7.0 0.00 0.00 0.00 44 1009.2
20260505094608 76 124 1.0 6.0 0.00 0.00 0.00 42 1009.1